Location: Newark
(34.1333°N, 7.9667°W)
Time: 00:13:05
(UTC+00:00)

Transit 2A - Pass Details

Date: 15 June 2021
Orbit: 598 x 960 km, 66.7° (Epoch: 24 July)

Event Time Altitude Azimuth Distance (km) Brightness Sun altitude
Rises 03:32:49 0° 331° (NNW) 3,096 9.4 -18.3°
Reaches altitude 10° 03:35:04 10° 329° (NNW) 2,226 8.6 -18.0°
Maximum altitude 03:40:09 73° 245° (WSW) 819 5.9 -17.3°
Drops below altitude 10° 03:45:46 10° 162° (SSE) 2,458 8.4 -16.4°
Sets 03:48:21 0° 160° (SSE) 3,445 9.1 -16.1°
